(58038) = 1994 SK4 = 2001 QY208 = 2002 VJ110

Discovered at Socorro on 2002-11-12 by LINEAR.

Orbit

Orbit type: Main Belt

Note: WebGL enabled browser required.

epoch2023-09-13.0
epoch JD2460200.5
perihelion date2021-05-11.80482
perihelion JD2459346.30482
argument of perihelion (°)104.96847
ascending node (°)11.19999
inclination (°)2.60797
eccentricity0.1555097
perihelion distance (AU)2.0070561
Tisserand w.r.t. Jupiter3.5
ΔV w.r.t. Earth (km/sec)8.9
semimajor axis (AU)2.3766478
mean anomaly (°)229.78078
mean daily motion (°/day)0.26900270
aphelion distance (AU)2.746
period (years)3.66
P-vector [x]-0.44081743
P-vector [y]0.80505530
P-vector [z]0.39694578
Q-vector [x]-0.89755327
Q-vector [y]-0.39970472
Q-vector [z]-0.18610282
absolute magnitude16.07
phase slope0.15
uncertainty0
referenceMPO 776823
observations used1087
oppositions17
arc length (days)11569
first opposition used1992
last opposition used2023
residual rms (arc-secs)0.71
perturbers coarse indicatorM-v
perturbers precise indicator003Ek
first observation date used1992-01-30.0
last observation date used2023-10-03.0
computer nameMPCLINUX
JD of orbit computation2456966.760127
perihelion JD uncertainty (days)4.2986E-05
argument of perihelion uncertainty (°)5.2051E-05
ascending node uncertainty (°)5.0191E-05
inclination uncertainty (°)3.4490E-06
eccentricity uncertainty 2.6270E-08
perihelion distance uncertainty (AU)6.2549E-08
Minimum Orbit Intersection Distances (in AU)
for orbit epoch: 2460200.5, reference: E2023-V03
Mercury1.68312
Venus1.28845
Earth1.02384
Mars0.3662
Jupiter2.34106
Saturn6.96565
Uranus16.2744
Neptune27.3549

Observations

1124 total observations over interval: 1992 01 30.21540 – 2023 10 03.285309
These data are available for download (format description).

Date (UT) J2000 RA J2000 Dec Magn Location Ref
1992 01 30.21540 08 13 39.16 +24 40 25.4 18.8 V 691 – Steward Observatory, Kitt Peak-Spacewatch MPS 70055
1992 01 30.24157 08 13 37.47 +24 40 28.7   691 – Steward Observatory, Kitt Peak-Spacewatch MPS 70055
1992 01 30.26832 08 13 35.66 +24 40 31.4   691 – Steward Observatory, Kitt Peak-Spacewatch MPS 70055
1994 09 28.21097 00 26 23.54 +02 23 08.0   691 – Steward Observatory, Kitt Peak-Spacewatch MPC 24174
1994 09 28.23982 00 26 21.84 +02 23 00.0 18.4 V 691 – Steward Observatory, Kitt Peak-Spacewatch MPC 24174
1994 09 28.26618 00 26 20.22 +02 22 51.5   691 – Steward Observatory, Kitt Peak-Spacewatch MPC 24174
1994 10 04.25294 00 20 30.28 +01 52 47.0   691 – Steward Observatory, Kitt Peak-Spacewatch MPC 24174
1994 10 04.27596 00 20 28.86 +01 52 40.2 18.9 V 691 – Steward Observatory, Kitt Peak-Spacewatch MPC 24174
1994 10 04.30067 00 20 27.34 +01 52 32.7   691 – Steward Observatory, Kitt Peak-Spacewatch MPC 24174
1998 11 10.33743 03 34 47.76 +22 29 06.0 18.8 R 699 – Lowell Observatory-LONEOS MPS 70055
1998 11 10.39457 03 34 43.94 +22 28 59.4   699 – Lowell Observatory-LONEOS MPS 70055
1998 11 10.41925 03 34 42.35 +22 28 56.3   699 – Lowell Observatory-LONEOS MPS 70055
1998 11 18.24188 03 26 13.67 +22 10 52.9 18.4   704 – Lincoln Laboratory ETS, New Mexico MPS 70055
1998 11 18.28651 03 26 10.48 +22 10 44.1 19.2   704 – Lincoln Laboratory ETS, New Mexico MPS 70055
1998 11 18.33100 03 26 07.46 +22 10 38.3 19.2   704 – Lincoln Laboratory ETS, New Mexico MPS 70055
1998 11 18.42049 03 26 00.94 +22 10 21.9 19.8   704 – Lincoln Laboratory ETS, New Mexico MPS 70055
1998 12 16.14794 03 01 25.97 +20 50 58.3 18.8 R 699 – Lowell Observatory-LONEOS MPS 70055
1998 12 16.16838 03 01 25.32 +20 50 56.4   699 – Lowell Observatory-LONEOS MPS 70055
1998 12 16.18879 03 01 24.73 +20 50 53.1   699 – Lowell Observatory-LONEOS MPS 70055
2001 08 23.28439 22 11 16.74 -14 11 55.4 19.0 R 699 – Lowell Observatory-LONEOS MPS 34839
2001 08 23.30776 22 11 15.43 -14 12 01.3   699 – Lowell Observatory-LONEOS MPS 34839
2001 08 23.33120 22 11 13.94 -14 12 07.1   699 – Lowell Observatory-LONEOS MPS 34839
2001 08 23.35465 22 11 12.57 -14 12 14.3   699 – Lowell Observatory-LONEOS MPS 34839
2001 08 24.24539 22 10 20.54 -14 16 20.7 19.5   644 – Palomar Mountain/NEAT MPS 34839
2001 08 24.25671 22 10 19.83 -14 16 24.4 19.6   644 – Palomar Mountain/NEAT MPS 34839
2001 08 24.26804 22 10 19.17 -14 16 27.4 19.1   644 – Palomar Mountain/NEAT MPS 34839
2002 11 12.41499 08 23 37.41 +22 56 40.4 19.6   704 – Lincoln Laboratory ETS, New Mexico MPS 66523
2002 11 12.43244 08 23 38.48 +22 56 37.7 19.5   704 – Lincoln Laboratory ETS, New Mexico MPS 66523
2002 11 12.46703 08 23 40.64 +22 56 35.8 19.2   704 – Lincoln Laboratory ETS, New Mexico MPS 66523
2002 11 14.42832 08 25 41.41 +22 53 09.7 19.2   704 – Lincoln Laboratory ETS, New Mexico MPS 66523
2002 11 14.44594 08 25 42.42 +22 53 09.5 19.6   704 – Lincoln Laboratory ETS, New Mexico MPS 66523
2002 11 14.48131 08 25 44.43 +22 53 03.9 19.4   704 – Lincoln Laboratory ETS, New Mexico MPS 66523
2002 11 14.49889 08 25 45.47 +22 53 03.4 19.4   704 – Lincoln Laboratory ETS, New Mexico MPS 66523
2002 12 06.37805 08 40 16.94 +22 40 17.1 18.9   704 – Lincoln Laboratory ETS, New Mexico MPS 68301
2002 12 06.39315 08 40 17.22 +22 40 18.0 19.0   704 – Lincoln Laboratory ETS, New Mexico MPS 68301
2002 12 06.42349 08 40 17.73 +22 40 19.1 19.7   704 – Lincoln Laboratory ETS, New Mexico MPS 68301
2002 12 06.43866 08 40 17.90 +22 40 20.0 19.2   704 – Lincoln Laboratory ETS, New Mexico MPS 68301
2002 12 11.46338 08 41 16.57 +22 45 21.4 18.9   644 – Palomar Mountain/NEAT MPS 68301
2002 12 11.48468 08 41 16.63 +22 45 22.9 18.7   644 – Palomar Mountain/NEAT MPS 68301
2002 12 11.51762 08 41 16.76 +22 45 25.3 18.7   644 – Palomar Mountain/NEAT MPS 68301
2002 12 19.41263 08 40 50.66 +22 59 40.3 18.6   644 – Palomar Mountain/NEAT MPS 70055
2002 12 19.43402 08 40 50.34 +22 59 43.3 18.7   644 – Palomar Mountain/NEAT MPS 70055
2002 12 19.45537 08 40 50.01 +22 59 46.1 18.7   644 – Palomar Mountain/NEAT MPS 70055
2002 12 27.26269 08 38 00.97 +23 20 29.5 18.2 R 699 – Lowell Observatory-LONEOS MPS 70055
2002 12 27.28676 08 38 00.15 +23 20 34.7   699 – Lowell Observatory-LONEOS MPS 70055
2002 12 27.31080 08 37 59.40 +23 20 39.2   699 – Lowell Observatory-LONEOS MPS 70055
2002 12 27.33472 08 37 58.54 +23 20 44.0   699 – Lowell Observatory-LONEOS MPS 70055
2002 12 28.33322 08 37 26.76 +23 23 46.3 18.0 R 699 – Lowell Observatory-LONEOS MPS 70055
2002 12 28.35556 08 37 25.97 +23 23 51.1   699 – Lowell Observatory-LONEOS MPS 70055
2002 12 28.37786 08 37 25.14 +23 23 56.5   699 – Lowell Observatory-LONEOS MPS 70055
2002 12 28.40005 08 37 24.36 +23 24 00.0   699 – Lowell Observatory-LONEOS MPS 70055
2002 12 31.30380 08 35 39.27 +23 33 15.4 18.3   704 – Lincoln Laboratory ETS, New Mexico MPS 70055
2002 12 31.31866 08 35 38.66 +23 33 18.4 18.5   704 – Lincoln Laboratory ETS, New Mexico MPS 70055
2002 12 31.34812 08 35 37.43 +23 33 24.7 19.1   704 – Lincoln Laboratory ETS, New Mexico MPS 70055
2002 12 31.36284 08 35 36.70 +23 33 29.3 19.4   704 – Lincoln Laboratory ETS, New Mexico MPS 70055
2003 01 05.31005 08 31 57.82 +23 50 10.5 18.4   704 – Lincoln Laboratory ETS, New Mexico MPS 70055
2003 01 05.32569 08 31 57.01 +23 50 14.0 18.6   704 – Lincoln Laboratory ETS, New Mexico MPS 70055
2003 01 05.34119 08 31 56.21 +23 50 17.2 18.5   704 – Lincoln Laboratory ETS, New Mexico MPS 70055
2003 01 05.35673 08 31 55.40 +23 50 20.5 18.5   704 – Lincoln Laboratory ETS, New Mexico MPS 70055
2003 01 05.37238 08 31 54.57 +23 50 23.2 18.8   704 – Lincoln Laboratory ETS, New Mexico MPS 70055
2003 01 09.25355 08 28 32.70 +24 03 45.4 18.2   704 – Lincoln Laboratory ETS, New Mexico MPS 70055
2003 01 09.26831 08 28 31.81 +24 03 48.7 18.3   704 – Lincoln Laboratory ETS, New Mexico MPS 70055
2003 01 09.28292 08 28 30.99 +24 03 52.3 18.4   704 – Lincoln Laboratory ETS, New Mexico MPS 70055
2003 01 09.29811 08 28 30.09 +24 03 55.2 18.8   704 – Lincoln Laboratory ETS, New Mexico MPS 70055
2003 01 09.31290 08 28 29.25 +24 03 58.7 18.6   704 – Lincoln Laboratory ETS, New Mexico MPS 70055
2003 01 25.24076 08 12 04.55 +24 51 30.8 17.6 R 699 – Lowell Observatory-LONEOS MPS 71649
2003 01 25.25497 08 12 03.58 +24 51 32.9   699 – Lowell Observatory-LONEOS MPS 71649
2003 01 25.26931 08 12 02.62 +24 51 34.7   699 – Lowell Observatory-LONEOS MPS 71649
2003 01 25.28363 08 12 01.65 +24 51 37.0   699 – Lowell Observatory-LONEOS MPS 71649
2003 02 01.26229 08 04 50.07 +25 04 06.8 18.5   704 – Lincoln Laboratory ETS, New Mexico MPS 71649
2003 02 01.27755 08 04 49.11 +25 04 07.6 18.7   704 – Lincoln Laboratory ETS, New Mexico MPS 71649
2003 02 01.29285 08 04 48.14 +25 04 08.2 18.7   704 – Lincoln Laboratory ETS, New Mexico MPS 71649
2003 02 01.30820 08 04 47.23 +25 04 09.6 18.6   704 – Lincoln Laboratory ETS, New Mexico MPS 71649
2003 02 04.24776 08 02 00.35 +25 07 26.1 19.1   704 – Lincoln Laboratory ETS, New Mexico MPS 73292
2003 02 04.26297 08 01 59.45 +25 07 24.8 18.6   704 – Lincoln Laboratory ETS, New Mexico MPS 73292
2003 02 04.27832 08 01 58.51 +25 07 24.9 18.6   704 – Lincoln Laboratory ETS, New Mexico MPS 73292
2003 02 04.29363 08 01 57.66 +25 07 25.4 18.3   704 – Lincoln Laboratory ETS, New Mexico MPS 73292
2003 02 04.30914 08 01 56.75 +25 07 26.4 18.5   704 – Lincoln Laboratory ETS, New Mexico MPS 73292
2003 02 07.24183 07 59 22.87 +25 09 22.6 17.8   704 – Lincoln Laboratory ETS, New Mexico MPS 73292
2003 02 07.25636 07 59 22.05 +25 09 23.2 18.5   704 – Lincoln Laboratory ETS, New Mexico MPS 73292
2003 02 07.27093 07 59 21.28 +25 09 23.0 18.3   704 – Lincoln Laboratory ETS, New Mexico MPS 73292
2003 02 07.28531 07 59 20.49 +25 09 23.3 18.2   704 – Lincoln Laboratory ETS, New Mexico MPS 73292
2003 02 07.29981 07 59 19.79 +25 09 23.3 18.2   704 – Lincoln Laboratory ETS, New Mexico MPS 73292
2003 02 23.20105 07 50 17.55 +24 59 01.4 18.4 R 699 – Lowell Observatory-LONEOS MPS 74213
2003 02 23.22610 07 50 17.07 +24 58 58.4   699 – Lowell Observatory-LONEOS MPS 74213
2003 02 23.25119 07 50 16.55 +24 58 55.8   699 – Lowell Observatory-LONEOS MPS 74213
